CAPE
1089 1053 1064 887 817 652 792 890 322 19 476 285 303 307 62 338 1068 823 634 712 1106 809 872 683 667 691 615 405 622 577 412 0 119 228 369 171 1 0 782 185 30 0 0
1148 1090 1076 1137 1085 891 820 856 531 0 162 780 482 457 442 876 835 1030 1106 925 736 801 756 381 481 774 1130 617 635 407 891 49 0 55 189 74 0 0 88 286 70 31 0
1128 993 877 960 1039 1106 1136 1161 805 636 667 1151 989 826 862 874 823 1004 1002 1149 1124 951 962 1107 999 778 731 733 537 533 438 492 256 12 5 51 6 21 131 370 115 39 0
1142 1174 1029 1158 1128 1091 1190 1228 1107 1157 1165 1147 1119 1006 1141 1190 1294 1093 1048 1196 1191 1177 1081 1102 1004 812 561 567 510 460 234 319 272 368 111 136 139 56 0 257 246 1 1
1306 1564 1273 1387 1298 1374 1323 1097 947 1053 1371 1089 861 1162 1162 1190 1394 1415 1174 1142 1096 970 908 780 854 915 728 648 873 700 266 253 219 336 342 17 46 140 120 1 190 28 1
1522 1294 1641 1403 1348 1208 1259 1254 1200 1269 1174 1012 944 894 913 1406 1705 1124 684 571 552 669 835 879 859 887 779 800 622 490 542 399 223 93 135 135 42 0 0 38 22 80 65
1308 1091 1487 1791 1598 1263 1297 982 1027 890 870 1065 1128 982 988 856 759 291 239 217 391 391 396 438 515 735 802 600 483 403 0 37 288 170 198 28 35 62 31 3 31 39 17
1184 1728 1783 1621 1656 1504 1361 1290 1183 1333 1267 1379 1278 1030 967 797 724 342 37 71 197 406 435 393 337 349 340 326 272 371 429 286 50 1 189 363 301 274 68 32 53 31 1
1307 1917 1726 1555 1685 1703 1572 1374 1235 1237 1275 1208 1191 1034 866 722 741 742 34 63 270 465 412 261 238 248 218 174 87 294 258 262 542 212 75 135 155 185 141 44 133 46 79
1517 1866 2130 2031 1870 1789 1573 1461 1283 1066 933 761 628 531 698 590 406 183 0 35 328 309 50 21 52 0 0 2 0 0 2 131 187 373 304 25 2 0 0 90 143 123 86
1858 2034 2246 2027 1884 1786 1526 1241 1082 759 615 547 545 160 76 138 141 262 80 25 140 26 16 0 18 1 0 0 1 1 0 1 11 31 63 118 138 173 78 1 53 172 113
2098 2147 2115 2037 2067 1721 1323 753 696 645 486 86 1 4 6 0 1 7 21 11 2 39 18 4 1 1 1 1 1 0 0 1 2 0 1 50 113 132 10 1 4 21 25
2173 1962 1714 1617 1585 1176 731 417 320 158 82 45 36 39 1 0 0 1 1 1 0 0 0 0 0 0 0 0 0 2 1 0 1 1 0 0 1 1 1 0 0 0 1
1631 1250 976 886 798 707 550 486 410 266 235 326 235 0 0 0 0 0 0 0 0 0 0 0 0 0 0 0 0 1 1 1 0 0 0 0 1 1 0 0 0 1 0
1108 936 927 697 828 1013 525 200 472 425 327 100 1 0 0 0 0 0 0 0 0 0 1 0 0 0 0 0 0 0 0 0 2 8 1 0 0 0 0 0 1 1 0
1042 928 956 1107 1010 912 740 273 0 0 0 0 0 0 0 0 1 1 1 0 1 0 0 0 0 0 0 0 0 0 0 8 0 0 0 0 0 0 0 1 1 0 0
1009 954 874 875 560 656 636 536 480 0 1 1 1 0 0 0 0 0 1 1 1 0 0 0 0 0 0 0 0 4 0 0 0 0 0 0 0 0 1 1 1 1 1
562 472 168 0 0 0 0 0 0 0 0 0 0 0 0 0 0 0 0 1 0 1 0 0 0 0 3 1 0 0 0 0 0 0 0 0 0 0 0 0 1 1 2
40 0 0 0 0 0 0 0 0 0 0 0 0 1 0 0 0 1 1 0 0 0 2 0 0 0 0 0 0 0 0 0 0 0 0 0 0 0 1 1 0 1 1
0 0 0 0 0 0 0 0 0 0 0 0 0 0 0 0 0 0 0 0 0 0 0 0 0 0 0 0 0 0 0 0 0 0 0 0 0 0 1 1 1 2 2
75 0 0 0 0 0 0 0 0 0 0 0 0 0 0 0 0 0 0 0 0 0 0 0 0 0 0 0 0 0 0 0 0 0 0 1 0 1 1 0 0 0 0
0 0 0 0 0 0 0 0 0 0 0 0 0 0 0 0 0 0 0 0 0 0 0 0 0 0 0 0 0 0 0 0 0 0 0 0 0 0 0 0 0 0 0
45 0 0 0 0 0 0 0 0 0 0 0 0 0 0 0 0 0 0 0 0 0 0 0 0 0 0 0 0 0 0 0 0 0 0 0 0 0 0 0 0 0 0
36 12 0 0 0 0 0 0 0 0 0 0 0 0 0 0 1 0 0 0 1 0 0 0 0 0 0 0 0 0 0 0 0 0 0 0 0 0 0 0 0 0 0
3 0 0 0 0 0 0 0 0 0 0 0 0 0 0 0 3 1 0 0 0 0 0 0 0 0 0 0 0 0 0 0 0 0 0 0 0 0 0 0 0 0 0
0 0 0 0 0 0 0 0 0 0 0 0 0 0 0 5 12 20 0 0 0 0 0 0 0 0 0 0 0 0 0 0 0 0 0 0 3 0 4 6 3 0 0
CIN
-122 -114 -109 -120 -120 -132 -123 -113 -165 -62 -129 -135 -142 -131 -172 -122 -77 -80 -90 -76 -61 -65 -76 -97 -102 -114 -110 -159 -151 -147 -144 0 -111 -146 -200 -248 -32 0 -158 -226 -250 -1 0
-163 -149 -140 -126 -112 -112 -127 -118 -134 0 -122 -116 -127 -118 -139 -91 -97 -71 -62 -63 -64 -63 -69 -125 -111 -92 -75 -121 -120 -106 -92 -137 0 -120 -184 -232 0 0 -231 -162 -196 -258 0
-179 -195 -183 -166 -141 -117 -114 -100 -113 -119 -138 -97 -100 -95 -86 -82 -81 -79 -68 -54 -56 -64 -64 -56 -61 -73 -75 -91 -106 -96 -116 -113 -160 -37 -60 -245 -50 -168 -166 -129 -187 -209 0
-185 -184 -204 -165 -156 -153 -124 -111 -100 -102 -96 -99 -94 -92 -83 -69 -68 -69 -68 -59 -60 -55 -57 -59 -61 -69 -86 -80 -98 -97 -138 -109 -122 -105 -176 -150 -157 -214 0 -124 -104 0 0
-168 -151 -194 -177 -155 -134 -114 -126 -124 -116 -79 -92 -120 -83 -77 -78 -60 -57 -66 -62 -60 -63 -69 -73 -74 -71 -85 -95 -66 -87 -156 -129 -125 -90 -93 -189 -151 -126 -125 -23 -109 -159 0
-143 -174 -135 -180 -159 -150 -112 -87 -97 -89 -117 -132 -120 -102 -90 -71 -28 -57 -85 -95 -95 -88 -70 -76 -79 -63 -72 -57 -63 -120 -91 -90 -99 -121 -100 -98 -151 0 0 -154 -145 -73 -74
-174 -185 -147 -115 -121 -148 -121 -124 -96 -104 -107 -85 -78 -94 -84 -97 -76 -142 -160 -173 -123 -120 -125 -122 -109 -51 -48 -71 -74 -81 0 -149 -104 -105 -88 -169 -157 -162 -175 -18 -149 -132 -161
-199 -143 -118 -119 -107 -116 -101 -84 -77 -71 -76 -61 -63 -79 -75 -93 -81 -106 -224 -191 -134 -112 -93 -88 -104 -103 -83 -80 -93 -82 -80 -103 -199 -16 -125 -90 -115 -109 -152 -135 -106 -159 0
-155 -117 -126 -119 -97 -89 -92 -105 -96 -80 -64 -62 -54 -59 -62 -68 -62 -45 -167 -131 -89 -71 -70 -76 -82 -88 -91 -78 -102 -64 -84 -91 -67 -124 -166 -139 -122 -98 -141 -146 -88 -100 -89
-154 -115 -91 -92 -94 -84 -92 -89 -75 -67 -59 -78 -74 -78 -56 -60 -67 -76 0 -118 -46 -47 -85 -113 -42 0 0 0 0 0 -6 -106 -88 -67 -82 -8 -7 0 0 -151 -114 -69 -78
-135 -102 -76 -102 -90 -79 -75 -84 -76 -80 -77 -73 -69 -133 -183 -130 -117 -71 -120 -118 -89 -91 -86 0 -28 0 0 0 0 0 0 0 -100 -86 -128 -104 -132 -116 -179 -54 -169 -78 -90
-105 -83 -80 -88 -69 -81 -81 -121 -100 -81 -86 -258 -107 -112 -217 0 0 -146 -180 -194 -94 -78 -74 -53 -17 0 0 0 0 0 0 0 0 0 -8 -110 -94 -94 -63 -47 -79 -59 -49
-87 -87 -100 -104 -88 -115 -148 -183 -179 -242 -256 -294 -294 -267 -35 0 0 0 0 0 0 0 0 0 0 0 0 0 0 0 0 0 0 0 0 0 -20 0 0 0 0 0 0
-147 -164 -183 -155 -157 -168 -189 -183 -163 -213 -193 -112 -155 0 0 0 0 0 0 0 0 0 0 0 0 0 0 0 0 0 0 0 0 0 0 0 0 0 0 0 0 0 0
-182 -171 -160 -186 -148 -92 -197 -401 -183 -186 -197 -252 -166 0 0 0 0 0 0 0 0 0 0 0 0 0 0 0 0 0 0 0 -24 -34 -23 0 0 0 0 0 0 0 0
-164 -172 -161 -131 -124 -125 -157 -187 0 0 0 0 0 0 0 0 0 0 0 0 0 0 0 0 0 0 0 0 0 0 0 -58 -8 0 0 0 0 0 0 0 0 0 0
-148 -163 -178 -177 -223 -166 -199 -186 -143 0 0 0 0 0 0 0 0 0 0 0 0 0 0 0 0 0 0 0 -15 -29 0 0 0 0 0 0 0 0 0 0 0 0 0
-225 -231 -332 0 0 0 0 0 0 0 0 0 0 0 0 0 0 0 0 0 0 0 0 0 0 0 -18 -24 -25 -41 0 0 0 0 0 0 0 0 0 0 0 0 0
-176 0 0 0 0 0 0 0 0 0 0 0 0 0 0 0 0 0 0 0 0 -2 -2 0 0 0 0 0 0 0 0 0 0 0 0 0 0 0 0 0 0 0 0
0 0 0 0 0 0 0 0 0 0 0 0 0 0 0 0 0 0 0 0 -20 -11 -1 0 0 0 0 0 0 0 0 0 0 0 0 0 0 0 0 0 0 0 0
-380 -6 0 0 0 0 0 0 0 0 0 0 0 0 0 0 0 0 0 0 0 0 0 0 0 0 0 0 0 0 0 0 0 0 0 0 0 0 0 0 0 0 0
0 0 0 0 0 0 0 0 0 0 0 0 0 0 0 0 0 0 0 0 0 0 0 0 0 0 0 0 0 0 0 0 0 0 0 0 0 0 0 0 0 0 0
-432 0 0 0 0 0 0 0 0 0 0 0 0 0 0 0 0 0 0 0 0 0 0 0 0 0 0 0 0 0 0 0 0 0 0 0 0 0 0 0 0 0 0
-437 -456 0 0 0 0 0 0 0 0 0 0 0 0 0 0 -58 0 0 -7 -49 0 0 0 0 0 0 0 0 0 0 0 0 0 0 0 0 0 0 0 0 0 0
-355 0 0 0 0 0 0 0 0 0 0 0 0 0 0 0 -82 -90 0 0 0 0 0 0 0 0 0 0 0 0 0 0 0 0 0 0 0 0 0 0 -3 0 0
0 0 0 0 0 0 0 0 0 0 0 0 0 0 0 -75 -60 -63 -13 0 0 0 0 0 0 0 0 0 0 0 0 0 0 0 -14 -37 -145 -63 -131 -116 -114 0 0
Wind_Speed
12 11 10 9 8 6 6 5 6 5 6 6 5 5 5 5 6 5 6 5 4 4 3 4 5 3 2 2 2 0 2 3 3 3 3 1 3 4 5 3 5 5 4
13 11 10 9 7 7 6 7 7 7 7 6 6 6 7 6 5 6 6 5 6 5 6 5 6 3 5 3 2 2 2 2 3 4 2 3 5 2 3 4 4 5 6
11 10 8 7 7 8 7 7 7 7 7 6 7 7 7 7 6 6 6 6 6 6 6 5 6 5 6 4 4 4 3 3 3 3 4 2 3 3 3 2 3 3 3
12 11 11 11 10 9 8 7 7 7 6 7 7 7 6 6 6 6 6 6 6 6 6 6 6 6 6 6 5 6 4 4 3 3 3 3 4 1 1 3 3 2 3
13 11 11 9 9 8 7 7 6 6 7 7 7 6 6 6 6 6 6 6 6 7 7 6 7 8 11 8 4 5 5 4 2 4 3 3 3 2 5 3 4 3 4
12 12 11 9 9 9 7 7 6 7 6 6 6 6 7 5 8 8 7 6 6 6 7 7 7 8 8 11 10 11 7 6 5 4 3 4 4 4 3 4 4 3 3
11 8 8 9 9 8 7 6 6 6 5 5 6 6 6 6 8 10 9 5 6 6 6 6 6 6 8 6 7 8 8 11 9 6 6 6 4 7 5 5 5 6 5
9 8 7 8 8 6 6 6 5 4 5 4 5 5 5 5 9 10 10 5 6 6 6 6 6 6 6 6 6 6 7 6 8 6 8 9 8 6 7 6 7 5 2
8 8 8 7 7 6 6 6 4 4 4 4 3 4 5 6 9 10 6 5 6 6 5 6 5 6 8 8 5 7 6 6 7 14 14 14 13 13 8 4 4 4 4
8 8 7 7 6 6 6 6 4 3 4 4 4 6 8 7 7 9 8 4 4 4 4 3 2 1 5 2 4 5 6 9 5 6 4 7 10 9 10 8 5 7 3
7 7 7 7 7 6 6 3 4 4 4 4 4 4 4 5 6 8 8 5 4 3 3 2 2 2 3 2 3 3 5 3 5 4 4 4 4 4 4 7 8 7 5
7 7 6 6 5 5 7 3 3 5 4 4 3 3 3 3 5 8 9 6 5 3 2 1 2 6 6 7 4 9 8 5 3 4 3 3 3 2 2 2 3 3 3
7 6 5 6 6 6 6 6 4 4 3 4 3 1 1 2 3 8 6 7 4 2 1 2 3 5 7 6 11 11 6 4 3 3 3 2 1 1 3 2 3 5 4
8 7 7 7 5 5 4 4 4 3 3 4 3 3 3 1 1 2 3 2 3 3 1 3 5 8 8 7 5 5 4 4 4 4 3 2 2 1 1 2 2 2 2
8 6 6 5 6 4 3 2 3 4 5 5 5 5 5 4 4 4 3 2 1 3 4 2 2 2 4 4 4 4 4 5 5 3 2 2 2 3 2 2 2 2 2
6 5 5 4 4 4 4 3 7 5 7 4 8 7 2 1 10 6 2 2 4 2 1 3 3 3 4 4 5 4 1 2 2 2 2 2 3 3 2 2 1 2 3
7 6 4 4 4 4 3 4 4 2 6 6 5 4 6 11 8 8 6 5 5 4 3 3 4 4 5 4 4 2 3 2 1 2 2 3 2 2 3 2 4 5 5
6 8 5 5 4 3 3 3 3 4 3 3 1 3 2 7 8 8 5 4 1 3 3 4 3 3 3 1 2 1 1 2 2 2 2 2 2 3 3 3 4 6 6
6 5 5 4 3 4 4 3 3 2 3 2 2 1 4 3 4 3 3 4 3 3 3 3 2 1 1 2 2 1 2 2 1 2 2 2 3 3 4 4 5 7 9
6 9 6 5 4 3 2 1 2 1 2 3 3 4 4 3 3 3 4 3 4 3 3 3 2 2 2 1 1 1 2 2 2 2 2 3 3 4 5 6 6 8 7
4 5 7 4 4 3 2 1 2 2 2 3 4 5 8 4 4 4 4 4 3 3 3 2 2 1 1 1 2 2 3 3 3 3 3 3 4 4 4 5 6 6 7
5 5 5 5 4 4 3 3 3 2 2 3 2 3 3 3 3 3 4 4 3 3 2 2 1 1 1 2 3 3 3 3 3 3 3 3 4 5 5 5 5 6 5
5 5 5 4 5 5 3 4 3 3 3 3 4 4 3 3 4 4 3 3 3 2 1 1 2 2 1 2 2 2 3 3 3 4 4 3 4 5 5 6 4 3 2
5 6 6 5 5 5 5 5 4 3 5 4 4 4 4 4 4 4 4 4 3 3 3 2 3 4 3 3 2 2 3 4 3 4 4 4 4 5 4 4 4 3 3
5 5 5 6 5 5 4 4 5 5 4 4 4 4 4 4 4 3 3 3 3 4 4 4 3 4 5 6 5 4 5 10 6 6 4 5 5 5 4 3 3 2 3
2 2 4 4 4 4 4 5 5 5 5 5 4 4 4 4 4 3 5 5 4 4 5 4 5 7 6 5 6 7 7 8 7 8 4 4 5 4 4 5 6 4 6
Wind_Direction
187 182 176 190 189 190 191 197 175 206 211 188 179 170 198 214 219 209 221 230 217 269 263 234 265 273 261 234 272 76 118 148 156 281 230 235 254 218 152 179 203 188 192
186 182 182 179 182 192 199 208 181 194 204 209 187 192 203 214 200 214 217 227 223 241 258 273 271 285 289 264 229 221 198 199 146 228 258 239 220 259 182 176 199 190 189
183 178 183 185 177 197 198 211 206 202 198 207 197 202 208 215 213 207 208 226 233 229 232 242 260 257 265 263 251 243 219 203 195 170 251 241 237 202 203 202 184 175 205
182 185 186 188 193 197 199 208 208 205 211 206 211 204 208 215 221 227 220 224 233 237 232 225 238 240 238 249 250 245 228 222 211 199 205 241 248 214 177 170 205 166 181
181 184 200 188 193 194 194 211 210 209 210 204 202 210 215 208 216 217 224 230 228 239 239 233 236 230 224 229 216 250 237 225 225 227 226 189 203 190 200 198 205 168 191
182 189 197 184 191 195 195 209 204 213 207 187 189 199 213 218 217 211 195 217 233 233 239 236 231 237 241 244 223 231 207 198 215 201 224 214 212 207 212 189 151 182 240
182 179 178 179 196 198 188 195 206 205 198 188 195 196 219 218 214 201 209 230 232 236 235 239 252 246 229 232 243 238 233 229 222 208 222 218 222 211 186 186 183 191 209
178 167 171 176 180 183 183 187 192 179 178 174 193 201 219 240 216 209 201 215 223 234 236 243 240 253 248 235 240 241 236 224 228 224 228 239 225 217 197 198 197 201 109
180 175 179 175 175 176 181 183 170 176 183 187 200 223 230 251 231 231 185 208 232 241 248 255 252 262 258 249 245 250 256 250 239 223 227 230 226 224 207 153 204 177 217
177 178 176 175 167 175 183 174 166 172 192 181 212 223 228 242 249 242 192 199 230 239 270 288 18 2 0 318 237 245 254 259 239 259 246 251 243 245 213 213 208 215 203
168 164 170 167 169 171 168 165 170 176 180 211 223 245 259 258 262 243 215 197 202 212 234 257 272 284 298 286 207 235 237 325 285 277 275 268 265 253 234 213 216 217 222
160 167 171 167 159 154 162 164 177 180 197 218 241 289 319 356 344 256 190 171 174 204 213 212 254 237 266 283 270 259 265 284 274 277 261 268 270 290 55 335 300 271 286
148 159 163 160 159 158 152 174 184 195 214 246 233 219 139 35 46 78 100 128 122 135 148 196 270 283 268 272 259 256 239 230 240 257 268 273 63 110 113 75 43 55 44
142 148 150 145 161 176 188 189 192 201 217 251 207 180 160 157 110 73 94 124 159 170 104 321 291 282 271 263 283 249 227 217 215 229 223 160 137 132 158 160 176 164 66
138 145 161 170 178 204 213 213 226 232 194 194 200 171 171 204 215 163 149 161 277 52 336 302 296 286 290 296 300 284 245 202 197 179 179 190 203 183 202 193 172 139 146
153 170 181 174 194 212 200 202 69 39 11 301 175 158 182 277 131 149 139 289 294 314 208 240 257 259 259 268 271 280 275 143 152 176 203 209 222 194 174 167 155 144 131
164 182 184 181 196 216 197 200 231 22 51 26 356 153 165 163 172 181 199 230 241 174 235 242 248 249 251 255 254 215 178 171 157 213 217 208 179 142 157 149 129 125 120
170 178 173 174 174 173 169 181 170 179 217 254 230 351 82 149 179 194 195 155 171 230 240 252 252 263 277 308 312 269 208 188 213 209 184 164 158 135 139 129 133 134 125
163 169 157 157 161 177 168 179 194 182 218 202 102 66 166 218 218 237 252 253 221 265 268 289 232 245 289 297 280 240 205 211 202 151 138 134 134 130 126 121 121 125 124
173 163 158 152 144 161 175 244 282 220 196 177 194 203 150 175 240 242 232 248 254 260 271 282 283 275 271 265 201 149 127 127 119 109 115 117 115 124 129 128 132 130 128
172 176 155 133 144 144 140 118 153 151 176 213 201 184 186 195 231 239 243 248 253 259 254 239 251 262 253 169 153 143 133 125 121 121 122 121 123 120 112 116 120 120 127
177 167 159 166 147 140 155 150 172 160 157 161 171 157 209 237 247 240 244 249 249 243 230 202 205 214 209 174 152 143 137 130 126 122 118 118 121 122 122 120 110 110 107
175 166 164 154 151 156 165 176 178 151 172 180 195 181 181 225 230 231 233 237 231 164 184 152 151 150 142 148 149 150 137 133 128 127 123 119 126 130 128 119 119 105 113
171 173 167 169 161 174 173 167 175 180 171 194 200 211 196 208 213 214 229 250 200 162 158 176 192 176 171 153 157 167 133 118 122 125 117 125 116 118 119 124 145 157 151
177 173 170 184 187 173 159 166 177 188 194 205 197 194 201 200 218 214 232 236 207 183 199 196 219 220 191 173 179 200 149 140 143 148 146 141 149 163 171 176 176 195 158
172 178 179 173 159 160 160 164 187 194 201 199 190 199 211 201 216 223 208 216 223 213 213 218 216 201 186 182 182 166 165 184 178 195 175 184 188 204 204 218 212 192 174